Regional Weather Roundup
Issued by NWS Raleigh/Durham, NC

Home | Current Version | Previous Version | Text Only | Print | Product List | Glossary On
Versions: 1 2 3 4 5 6 7 8 9 10 11 12 13 14 15 16 17 18 19 20 21 22 23 24 25 26 27
000
ASUS42 KRAH 171610
RWRRAH
NORTH CAROLINA WEATHER ROUNDUP
NATIONAL WEATHER SERVICE RALEIGH NC
1200 PM EDT THU AUG 17 2017

NOTE: "FAIR" INDICATES FEW OR NO CLOUDS BELOW 12,000 FEET WITH NO
SIGNIFICANT WEATHER AND/OR OBSTRUCTIONS TO VISIBILITY.

NCZ001-053-055-056-065-067-171700-
WESTERN NORTH CAROLINA

CITY           SKY/WX    TMP DP  RH WIND       PRES   REMARKS
ASHEVILLE      SUNNY     84  68  58 VRB3      30.14F
JEFFERSON      PTSUNNY   78  66  68 W6        30.19S
MORGANTON      SUNNY     83  70  64 CALM      30.11F
HICKORY        SUNNY     86  75  69 CALM      30.07F HX  95
RUTHERFORDTON  SUNNY     85  73  68 S5        30.09S
MOUNT AIRY     SUNNY     85  74  69 W3        30.09F
BOONE          PTSUNNY   78  64  62 NW3       30.19F
$$

NCZ021-022-025-041-071-084-088-171700-
CENTRAL NORTH CAROLINA

CITY           SKY/WX    TMP DP  RH WIND       PRES   REMARKS
CHARLOTTE      MOSUNNY   90  77  65 SW5       30.06F HX 103
GREENSBORO     MOSUNNY   87  75  67 SW6       30.05F HX  96
WINSTON-SALEM  SUNNY     86  73  65 CALM      30.07F
RALEIGH-DURHAM MOSUNNY   90  77  65 W5        30.05S HX 103
FORT BRAGG     MOSUNNY   90  77  64 SE3       30.03S HX 103
FAYETTEVILLE   MOSUNNY   89  79  72 VRB7      30.03F HX 104
BURLINGTON     SUNNY     89  76  65 SW7       30.04F HX 100
LAURINBURG     MOSUNNY   91  82  75 SW6       30.04F HX 113
$$

NCZ011-015-027-028-043-044-047-080-103-171700-
NORTHEASTERN NORTH CAROLINA

CITY           SKY/WX    TMP DP  RH WIND       PRES   REMARKS
ROCKY MT-WILSO MOSUNNY   87  78  74 VRB5      30.05F HX 100
GREENVILLE     PTSUNNY   88  73  62 SW5       30.07S HX  96
WASHINGTON     SUNNY     87  75  67 S5        30.06S HX  96
ELIZABETH CITY SUNNY     86  76  71 E6        30.06S HX  96
MANTEO         SUNNY     82  70  66 E5        30.06F
CAPE HATTERAS  CLOUDY    83  75  77 SE7       30.07S
$$

NCZ078-087-090-091-093-098-101-171700-
SOUTHEASTERN NORTH CAROLINA

CITY           SKY/WX    TMP DP  RH WIND       PRES   REMARKS
LUMBERTON      MOSUNNY   90  80  72 S3        30.03S HX 107
GOLDSBORO      MOSUNNY   90  81  76 S6        30.04S HX 109
KINSTON        MOSUNNY   90  73  58 SW3       30.05F HX  98
KENANSVILLE    PTSUNNY   88  77  70 S3        30.06R HX 100
NEW BERN       PTSUNNY   89  75  63 SE6       30.06F HX  99
CHERRY POINT   PTSUNNY   89  75  63 VRB3      30.06F HX  99
BEAUFORT       PTSUNNY   86  77  74 S6        30.06S HX  97
JACKSONVILLE   MOSUNNY   88  79  74 SE8       30.04F HX 103
WILMINGTON     MOSUNNY   89  79  72 SE12      30.04F HX 104
$$





USA.gov is the U.S. government's official web portal to all federal, state and local government web resources and services.